sat.trackr.live / text

‹ back to catalog

DONGPO 10

NORAD 54689 · 2022-167H

PAYLOAD ACTIVE UNKNOWN

§ Identity

Operator
Country
PRC
Launch date
2022-12-09
Launch site
SEAL
Launch vehicle
Mass (kg)
RCS (m²)

External: N2YO · Heavens-Above · Gunter

§ Orbital elements

Epoch: 2026-09-20T22:38:02.193216Z

Period
93.74 min
Inclination
97.7017°
Eccentricity
0.0005755
Mean motion
15.36122234 rev/d
Perigee alt
453.7 km
Apogee alt
461.5 km
Semi-major
6,835.7 km
B*
1.9280e-4
RAAN
78.3119°
Arg perigee
123.4382°
Mean anomaly
236.7412°
Rev number
21,005

§ Raw data

DONGPO 101 54689U 22167H   26263.94308094  .00006700  00000+0  19280-3 0  99912 54689  97.7017  78.3119 0005755 123.4382 236.7412 15.36122234210051

JSON: /api/v1/satellites/54689 · /tle

For live sub-satellite position, see the globe view (requires WebGL).

§ Visibility from observer

Set your observer location to see the next 7 days of passes ≥ 10°. The values pass through the URL so the page stays shareable.

No JS? Fill the form by hand. The geolocation button needs JavaScript.

§ Radio — SatNOGS DB

ModeDescriptionDownlinkUplink
FM Jillin Mysterious Pip 1.616 GHz

1 transmitter · refreshed weekly from db.satnogs.org